PROBA-3

导读 | 星芒AI

PROBA-3 是欧洲空间局(ESA)的一项创新任务,由两颗卫星组成,旨在以极高精度进行日冕观测。主卫星携带日冕仪,从卫星前方遮挡太阳光,使另一颗卫星能够观测日冕。这是首次在太空中实现此类遮挡技术,两颗卫星将保持精确的150米距离飞行。任务目标是研究太阳外层大气的结构与动力学,为理解日冕加热和太阳风起源提供关键数据。PROBA-3 还测试了先进自主导航和卫星间通信技术,为未来深空任务奠定基础。

基本信息
目录编号:
62256
目录名称:
PROBA-3 CSC
国际标识:
2024-233A
轨道中心:
EARTH
卫星名称:
PROBA-3
卫星全名:
PROBA-3
卫星状态:
在轨 (已飞行373 天)
发射日期:
2024-12-05 UTC
国别 :
印度 (IN)
星等 :
--
轨道信息
数据来源 国际轨道数据
星历时间: 2025-12-12T21:37:26+0800
20小时前
查看轨道信息
半长轴: 36981.639km
偏心率: 0.8030732
轨道倾角: 59.546°
近地点辐角 200.088°
升交点赤经 113.271°
平近点角 85.438°
近地点: 904.54km
远地点: 60302.468km
周期: 1179.611分钟
每日圈数: 1.220741
详细信息
使用方式:
暂无
2D轨道图
3D轨道图
轨道高度分析图
轨道倾角分析图
轨道综合分析图
查看轨道综合分析图